When you browse on this site, cookies collect data to enhance your experience and personalize the content and advertising you see.
Visit our Privacy Policy to learn more. By continuing to use the site, you agree to this use of cookies and data.
  • In Österreich
  • Länderverzeichnis
  • Für 7 Tage
  • Wassertemperatur
  • Satellitenkarten
  • Wetterkarte
  • News
  • Widgets
  • user-avatar
    Anmelden

    Stündliche Wetter Linz

    Heute, 19 Mai, Sonntag

    Zeit Temperatur Niederschläge Wind Luftdruck Luftfeuchtigkeit
    00:00 +10°C° 0 mm 2 m/S 726 mmHg 83%
    01:00 +10°C° 0 mm 2 m/S 725 mmHg 86%
    02:00 +9°C° 0 mm 2 m/S 725 mmHg 88%
    03:00 +9°C° 0 mm 2 m/S 725 mmHg 89%
    04:00 +9°C° 0 mm 1 m/S 725 mmHg 90%
    05:00 +11°C° 0 mm 1 m/S 725 mmHg 85%
    06:00 +13°C° 0 mm 1 m/S 725 mmHg 80%
    07:00 +15°C° 0 mm 1 m/S 725 mmHg 73%
    08:00 +17°C° 0 mm 2 m/S 725 mmHg 69%
    09:00 +18°C° 0 mm 2 m/S 724 mmHg 65%
    10:00 +20°C° 0 mm 3 m/S 724 mmHg 60%
    11:00 +21°C° 0 mm 3 m/S 724 mmHg 58%
    12:00 +22°C° 0 mm 3 m/S 724 mmHg 55%
    13:00 +22°C° 0 mm 3 m/S 724 mmHg 53%
    14:00 +22°C° 0.1 mm 3 m/S 724 mmHg 56%
    15:00 +22°C° 0.1 mm 3 m/S 723 mmHg 59%
    16:00 +22°C° 0.1 mm 4 m/S 723 mmHg 62%
    17:00 +20°C° 0 mm 3 m/S 723 mmHg 68%
    18:00 +19°C° 0 mm 3 m/S 723 mmHg 74%
    19:00 +17°C° 0 mm 2 m/S 723 mmHg 80%
    20:00 +16°C° 0 mm 2 m/S 723 mmHg 83%
    21:00 +14°C° 0 mm 2 m/S 723 mmHg 86%
    22:00 +13°C° 0 mm 2 m/S 723 mmHg 89%
    23:00 +12°C° 0 mm 1 m/S 723 mmHg 89%

    Morgen, 20 Mai, Montag

    Zeit Temperatur Niederschläge Wind Luftdruck Luftfeuchtigkeit
    00:00 +12°C° 0 mm 1 m/S 723 mmHg 89%
    01:00 +11°C° 0 mm 1 m/S 723 mmHg 90%
    02:00 +11°C° 0 mm 1 m/S 723 mmHg 89%
    03:00 +11°C° 0 mm 1 m/S 723 mmHg 89%
    04:00 +11°C° 0 mm 1 m/S 723 mmHg 88%
    05:00 +12°C° 0 mm 1 m/S 722 mmHg 87%
    06:00 +12°C° 0 mm 1 m/S 722 mmHg 85%
    07:00 +13°C° 0 mm 1 m/S 722 mmHg 84%
    08:00 +14°C° 0.6 mm 1 m/S 722 mmHg 85%
    09:00 +14°C° 0.6 mm 1 m/S 722 mmHg 87%
    10:00 +14°C° 0.6 mm 1 m/S 723 mmHg 88%
    11:00 +14°C° 0.7 mm 1 m/S 723 mmHg 87%
    12:00 +15°C° 0.7 mm 2 m/S 723 mmHg 87%
    13:00 +15°C° 0.7 mm 2 m/S 723 mmHg 86%
    14:00 +16°C° 0.1 mm 2 m/S 723 mmHg 81%
    15:00 +18°C° 0.1 mm 1 m/S 723 mmHg 77%
    16:00 +19°C° 0.1 mm 1 m/S 722 mmHg 72%
    17:00 +17°C° 0.6 mm 2 m/S 723 mmHg 79%
    18:00 +16°C° 0.6 mm 2 m/S 723 mmHg 86%
    19:00 +13°C° 0.6 mm 3 m/S 723 mmHg 93%
    20:00 +14°C° 0.3 mm 2 m/S 723 mmHg 94%
    21:00 +13°C° 0.3 mm 2 m/S 723 mmHg 95%
    22:00 +12°C° 0.3 mm 1 m/S 723 mmHg 96%
    23:00 +12°C° 0.7 mm 1 m/S 724 mmHg 96%

    übermorgen, 21 Mai, Dienstag

    Zeit Temperatur Niederschläge Wind Luftdruck Luftfeuchtigkeit
    00:00 +12°C° 0.7 mm 1 m/S 724 mmHg 96%
    01:00 +12°C° 0.7 mm 1 m/S 724 mmHg 97%
    02:00 +12°C° 1.3 mm 1 m/S 724 mmHg 96%
    03:00 +12°C° 1.3 mm 2 m/S 724 mmHg 96%
    04:00 +12°C° 1.3 mm 2 m/S 724 mmHg 96%
    05:00 +11°C° 1.2 mm 3 m/S 725 mmHg 95%
    06:00 +11°C° 1.2 mm 4 m/S 725 mmHg 94%
    07:00 +10°C° 1.2 mm 4 m/S 725 mmHg 94%
    08:00 +10°C° 0.3 mm 5 m/S 725 mmHg 93%
    09:00 +10°C° 0.3 mm 5 m/S 726 mmHg 93%
    10:00 +10°C° 0.3 mm 5 m/S 726 mmHg 92%
    11:00 +10°C° 0.4 mm 5 m/S 726 mmHg 93%
    12:00 +11°C° 0.4 mm 4 m/S 727 mmHg 93%
    13:00 +11°C° 0.4 mm 4 m/S 727 mmHg 94%
    14:00 +11°C° 0.8 mm 4 m/S 727 mmHg 94%
    15:00 +11°C° 0.8 mm 4 m/S 727 mmHg 94%
    16:00 +10°C° 0.8 mm 5 m/S 727 mmHg 94%
    17:00 +10°C° 1.2 mm 5 m/S 728 mmHg 94%
    18:00 +10°C° 1.2 mm 5 m/S 728 mmHg 94%
    19:00 +10°C° 1.2 mm 5 m/S 728 mmHg 94%
    20:00 +10°C° 0.5 mm 5 m/S 729 mmHg 94%
    21:00 +10°C° 0.5 mm 5 m/S 729 mmHg 94%
    22:00 +10°C° 0.5 mm 5 m/S 730 mmHg 94%
    23:00 +10°C° 0.4 mm 5 m/S 730 mmHg 94%

    22 Mai, Mittwoch

    Zeit Temperatur Niederschläge Wind Luftdruck Luftfeuchtigkeit
    00:00 +10°C° 0.4 mm 5 m/S 730 mmHg 94%
    01:00 +10°C° 0.4 mm 5 m/S 730 mmHg 94%
    02:00 +10°C° 0.7 mm 5 m/S 730 mmHg 94%
    03:00 +10°C° 0.7 mm 5 m/S 730 mmHg 94%
    04:00 +10°C° 0.7 mm 5 m/S 730 mmHg 94%
    05:00 +10°C° 0.7 mm 5 m/S 730 mmHg 93%
    06:00 +12°C° 0.7 mm 5 m/S 730 mmHg 93%
    07:00 +12°C° 0.7 mm 5 m/S 731 mmHg 93%
    08:00 +12°C° 0.1 mm 5 m/S 731 mmHg 91%
    09:00 +13°C° 0.1 mm 6 m/S 731 mmHg 89%
    10:00 +14°C° 0.1 mm 6 m/S 731 mmHg 88%
    11:00 +13°C° 0.1 mm 6 m/S 732 mmHg 88%
    12:00 +13°C° 0.1 mm 6 m/S 732 mmHg 89%
    13:00 +13°C° 0.1 mm 6 m/S 732 mmHg 89%
    14:00 +13°C° 0.1 mm 6 m/S 732 mmHg 88%
    15:00 +14°C° 0.1 mm 6 m/S 732 mmHg 86%
    16:00 +14°C° 0.1 mm 6 m/S 732 mmHg 85%
    17:00 +14°C° 0.1 mm 5 m/S 732 mmHg 87%
    18:00 +13°C° 0.1 mm 5 m/S 733 mmHg 89%
    19:00 +13°C° 0.1 mm 4 m/S 733 mmHg 91%
    20:00 +12°C° 0.2 mm 4 m/S 733 mmHg 92%
    21:00 +11°C° 0.2 mm 4 m/S 734 mmHg 93%
    22:00 +11°C° 0.2 mm 4 m/S 734 mmHg 94%
    23:00 +11°C° 0.2 mm 4 m/S 734 mmHg 95%

    23 Mai, Donnerstag

    Zeit Temperatur Niederschläge Wind Luftdruck Luftfeuchtigkeit
    00:00 +11°C° 0.2 mm 4 m/S 734 mmHg 95%
    01:00 +11°C° 0.2 mm 4 m/S 734 mmHg 96%
    02:00 +10°C° 0.2 mm 3 m/S 734 mmHg 96%
    03:00 +10°C° 0.2 mm 3 m/S 734 mmHg 96%
    04:00 +10°C° 0.2 mm 3 m/S 734 mmHg 96%
    05:00 +10°C° 0.1 mm 3 m/S 735 mmHg 95%
    06:00 +11°C° 0.1 mm 3 m/S 735 mmHg 94%
    07:00 +11°C° 0.1 mm 3 m/S 735 mmHg 93%
    08:00 +12°C° 0 mm 3 m/S 735 mmHg 85%
    09:00 +14°C° 0 mm 3 m/S 735 mmHg 78%
    10:00 +15°C° 0 mm 4 m/S 735 mmHg 70%
    11:00 +17°C° 0 mm 3 m/S 735 mmHg 66%
    12:00 +18°C° 0 mm 3 m/S 735 mmHg 62%
    13:00 +18°C° 0 mm 3 m/S 735 mmHg 58%
    14:00 +19°C° 0 mm 3 m/S 734 mmHg 58%
    15:00 +19°C° 0 mm 3 m/S 734 mmHg 58%
    16:00 +19°C° 0 mm 3 m/S 734 mmHg 57%
    17:00 +18°C° 0 mm 3 m/S 734 mmHg 63%
    18:00 +17°C° 0 mm 2 m/S 734 mmHg 69%
    19:00 +15°C° 0 mm 2 m/S 734 mmHg 75%
    20:00 +14°C° 0 mm 1 m/S 735 mmHg 77%
    21:00 +12°C° 0 mm 1 m/S 735 mmHg 79%
    22:00 +11°C° 0 mm 1 m/S 735 mmHg 82%
    23:00 +10°C° 0 mm 1 m/S 735 mmHg 82%

    24 Mai, Freitag

    Zeit Temperatur Niederschläge Wind Luftdruck Luftfeuchtigkeit
    00:00 +10°C° 0 mm 1 m/S 735 mmHg 83%
    01:00 +9°C° 0 mm 1 m/S 735 mmHg 83%
    02:00 +9°C° 0 mm 1 m/S 735 mmHg 84%
    03:00 +8°C° 0 mm 1 m/S 735 mmHg 85%
    04:00 +8°C° 0 mm 1 m/S 735 mmHg 86%
    05:00 +10°C° 0 mm 1 m/S 734 mmHg 81%
    06:00 +11°C° 0 mm 1 m/S 734 mmHg 77%
    07:00 +13°C° 0 mm 1 m/S 734 mmHg 72%
    08:00 +15°C° 0 mm 1 m/S 734 mmHg 68%
    09:00 +16°C° 0 mm 1 m/S 733 mmHg 64%
    10:00 +19°C° 0 mm 1 m/S 733 mmHg 60%
    11:00 +19°C° 0 mm 2 m/S 732 mmHg 57%
    12:00 +20°C° 0 mm 2 m/S 732 mmHg 54%
    13:00 +21°C° 0 mm 2 m/S 731 mmHg 51%
    14:00 +21°C° 0 mm 2 m/S 731 mmHg 52%
    15:00 +21°C° 0 mm 2 m/S 730 mmHg 52%
    16:00 +21°C° 0 mm 2 m/S 730 mmHg 53%
    17:00 +21°C° 0 mm 1 m/S 730 mmHg 59%
    18:00 +19°C° 0 mm 1 m/S 730 mmHg 66%
    19:00 +16°C° 0 mm 0 m/S 729 mmHg 72%
    20:00 +14°C° 0 mm 0 m/S 729 mmHg 76%
    21:00 +14°C° 0 mm 1 m/S 729 mmHg 79%
    22:00 +12°C° 0 mm 1 m/S 729 mmHg 82%
    23:00 +12°C° 0 mm 1 m/S 729 mmHg 83%
    Mehr zeigen